Location: Mount Graham
(32.7016°N, 109.8912°W)
Time: 13:02:34
(UTC-07:00)

Cosmos 1340 - Visible Passes

Search period start: 29 July 2015 00:00
Search period end: 08 August 2015 00:00
Orbit: 513 x 517 km, 81.2° (Epoch: 28 July)

Date Brightness Start Highest point End Pass type
(mag) Time Alt. Az. Time Alt. Az. Time Alt. Az.
30 Jul 5.5 05:01:27 10° NNE 05:04:36 24° ENE 05:07:49 10° SE visible
31 Jul 5.7 04:46:32 10° NNE 04:49:23 20° ENE 04:52:20 10° SE visible
01 Aug 5.8 04:31:41 10° NNE 04:34:09 17° ENE 04:36:45 10° ESE visible
02 Aug 6.0 04:16:57 10° NE 04:18:55 14° ENE 04:21:03 10° ESE visible
03 Aug 6.1 04:02:29 10° NE 04:03:39 11° ENE 04:05:03 10° E visible
05 Aug 2.8 05:05:39 10° NNW 05:09:24 52° W 05:13:07 10° S visible
06 Aug 2.6 04:50:24 10° NNW 04:54:14 66° W 04:58:01 10° S visible
07 Aug 2.6 04:35:11 10° N 04:39:03 83° W 04:42:52 10° S visible
